Location: Greenspot (historical)
(34.0858°N, 117.1109°W)
Time: 06:02:48
(UTC+00:00)

SL-24 R/B - RUBIN 2 - Pass Details

Date: 18 April 2024
Orbit: 568 x 1023 km, 64.6° (Epoch: 28 May)

Event Time Altitude Azimuth Distance (km) Brightness Sun altitude
Exits shadow 12:02:39 12° 204° (SSW) 2,276 6.0 -14.6°
Maximum altitude 12:07:56 82° 118° (ESE) 906 4.4 -13.6°
Drops below altitude 10° 12:14:18 10° 31° (NNE) 2,706 7.7 -12.4°
Sets 12:17:00 0° 31° (NNE) 3,701 8.5 -11.8°
